Date String (YYYY-MM-DD hh:mm:ss) UTC,Instrument flags,Ambient pressure (hPa),Sample flow (lpm),Bypass flow (lpm),Sample temperature (°C),Ambient temperature (°C),ASC tube jacket temperature (°C),LED temperature (°C),Box temperature (°C),Sample RH (%),Span deviation,Mass concentration (μg/m³),Mass concentration (μg/m³),Mass concentration (μg/m³)
DateTimeUTC,F1_M11,P_M11,Q1_M11,Q2_M11,T1_M11,T2_M11,T3_M11,T4_M11,T5_M11,U1_M11,ZSPAN_M11,X0_M11,X2_M11,X1_M11
2021-10-26 05:00:00,,0816.2,5.00,0.00,30.3,29.4,00.0,39.4,32.0,12.5,0000.0,0018.19,0004.20,0002.27
2021-10-26 05:01:00,,0816.2,5.00,0.00,30.3,29.4,00.0,39.4,32.0,12.5,0000.0,0018.16,0004.17,0002.34
2021-10-26 05:02:00,,0816.1,5.01,0.00,30.3,29.4,00.0,39.4,32.0,12.3,0000.0,0018.44,0004.18,0002.42
2021-10-26 05:03:00,,0816.1,4.99,0.00,30.3,29.4,00.0,39.4,32.0,12.3,0000.0,0019.36,0004.18,0002.54
2021-10-26 05:04:00,,0816.1,5.00,0.00,30.3,29.4,00.0,39.4,32.0,12.1,0000.0,0018.99,0004.20,0002.67
2021-10-26 05:05:00,,0816.1,5.00,0.00,30.3,29.4,00.0,39.4,32.0,12.0,0000.0,0018.07,0004.26,0002.83
2021-10-26 05:06:00,,0816.1,5.01,0.00,30.3,29.4,00.0,39.4,31.9,12.0,0000.0,0018.13,0004.37,0003.04
2021-10-26 05:07:00,,0816.1,5.00,0.00,30.3,29.3,00.0,39.4,31.9,12.0,0000.0,0017.32,0004.39,0003.17
2021-10-26 05:08:00,,0816.0,5.01,0.00,30.3,29.3,00.0,39.4,31.9,11.8,0000.0,0015.74,0004.43,0003.28
2021-10-26 05:09:00,,0816.0,4.99,0.00,30.3,29.3,00.0,39.4,31.9,11.6,0000.0,0015.32,0004.56,0003.41
2021-10-26 05:10:00,,0815.9,4.99,0.00,30.3,29.3,00.0,39.4,32.0,11.7,0000.0,0014.22,0004.65,0003.56
2021-10-26 05:11:00,,0815.9,5.01,0.00,30.3,29.3,00.0,39.4,32.0,11.6,0000.0,0013.34,0004.76,0003.68
2021-10-26 05:12:00,,0815.9,4.99,0.00,30.3,29.3,00.0,39.4,32.0,11.6,0000.0,0014.21,0004.88,0003.79
2021-10-26 05:13:00,,0815.9,4.99,0.00,30.3,29.3,00.0,39.4,31.9,11.7,0000.0,0013.96,0004.95,0003.89
2021-10-26 05:14:00,,0816.0,5.01,0.00,30.3,29.3,00.0,39.4,32.0,11.8,0000.0,0012.97,0005.00,0003.96
2021-10-26 05:15:00,,0816.0,4.99,0.00,30.3,29.3,00.0,39.4,32.0,11.8,0000.0,0012.73,0005.07,0004.02
2021-10-26 05:16:00,,0816.0,5.01,0.00,30.3,29.3,00.0,39.4,32.0,11.6,0000.0,0012.57,0005.10,0004.06
2021-10-26 05:17:00,,0815.9,5.01,0.00,30.3,29.3,00.0,39.4,31.9,11.3,0000.0,0013.08,0005.10,0004.10
2021-10-26 05:18:00,,0815.8,5.00,0.00,30.2,29.3,00.0,39.4,31.9,11.3,0000.0,0013.45,0005.16,0004.18
2021-10-26 05:19:00,,0815.8,4.99,0.00,30.2,29.3,00.0,39.4,31.9,11.2,0000.0,0012.76,0005.15,0004.23
2021-10-26 05:20:00,,0815.8,5.00,0.00,30.2,29.3,00.0,39.4,31.9,11.2,0000.0,0012.74,0005.12,0004.26
2021-10-26 05:21:00,,0815.8,5.01,0.00,30.2,29.3,00.0,39.4,31.9,11.2,0000.0,0012.84,0005.12,0004.28
2021-10-26 05:22:00,,0815.8,4.99,0.00,30.2,29.3,00.0,39.4,31.9,11.2,0000.0,0013.24,0005.14,0004.30
2021-10-26 05:23:00,,0815.9,5.00,0.00,30.2,29.3,00.0,39.4,31.9,11.2,0000.0,0012.85,0005.13,0004.32
2021-10-26 05:24:00,,0815.9,5.00,0.00,30.2,29.3,00.0,39.4,31.9,11.5,0000.0,0012.55,0005.11,0004.31
2021-10-26 05:25:00,,0815.9,4.99,0.00,30.2,29.3,00.0,39.4,31.9,11.3,0000.0,0012.55,0005.12,0004.34
2021-10-26 05:26:00,,0815.9,5.00,0.00,30.2,29.3,00.0,39.4,31.9,11.2,0000.0,0013.01,0005.09,0004.37
2021-10-26 05:27:00,,0815.9,5.00,0.00,30.2,29.3,00.0,39.4,31.9,11.2,0000.0,0013.22,0005.09,0004.40
2021-10-26 05:28:00,,0815.8,5.00,0.00,30.2,29.3,00.0,39.4,31.9,11.2,0000.0,0013.08,0005.11,0004.40
2021-10-26 05:29:00,,0815.8,5.01,0.00,30.2,29.3,00.0,39.4,31.9,11.2,0000.0,0013.06,0005.09,0004.40
2021-10-26 05:30:00,,0815.8,5.01,0.00,30.2,29.3,00.0,39.4,31.9,11.2,0000.0,0013.55,0005.16,0004.39
2021-10-26 05:31:00,,0815.8,4.99,0.00,30.2,29.3,00.0,39.4,31.9,11.2,0000.0,0014.08,0005.18,0004.39
2021-10-26 05:32:00,,0815.7,5.00,0.00,30.2,29.2,00.0,39.4,31.8,11.2,0000.0,0014.50,0005.15,0004.38
2021-10-26 05:33:00,,0815.7,5.02,0.00,30.2,29.2,00.0,39.4,31.8,11.1,0000.0,0015.34,0005.15,0004.36
2021-10-26 05:34:00,,0815.7,4.99,0.00,30.2,29.2,00.0,39.4,31.9,11.1,0000.0,0015.30,0005.13,0004.35
2021-10-26 05:35:00,,0815.7,4.99,0.00,30.2,29.2,00.0,39.4,31.9,11.1,0000.0,0015.50,0005.12,0004.35
2021-10-26 05:36:00,,0815.6,4.99,0.00,30.2,29.2,00.0,39.4,31.9,11.5,0000.0,0015.37,0005.16,0004.33
2021-10-26 05:37:00,,0815.7,5.00,0.00,30.2,29.2,00.0,39.3,31.9,11.4,0000.0,0014.71,0005.20,0004.30
2021-10-26 05:38:00,,0815.7,5.00,0.00,30.2,29.2,00.0,39.3,31.9,11.4,0000.0,0014.53,0005.18,0004.27
2021-10-26 05:39:00,,0815.7,4.99,0.00,30.2,29.2,00.0,39.3,31.9,11.6,0000.0,0014.42,0005.15,0004.23
2021-10-26 05:40:00,,0815.7,5.00,0.00,30.2,29.2,00.0,39.3,31.9,11.5,0000.0,0014.27,0005.14,0004.19
2021-10-26 05:41:00,,0815.7,4.99,0.00,30.2,29.3,00.0,39.3,31.9,11.8,0000.0,0014.10,0005.08,0004.15
2021-10-26 05:42:00,,0816.1,5.00,0.00,30.2,29.3,00.0,39.3,31.9,11.7,0000.0,0014.27,0005.02,0004.08
2021-10-26 05:43:00,,0816.1,5.00,0.00,30.2,29.3,00.0,39.3,31.9,11.5,0000.0,0013.74,0005.00,0004.03
2021-10-26 05:44:00,,0815.6,5.00,0.00,30.2,29.2,00.0,39.3,31.9,11.5,0000.0,0012.59,0004.97,0004.00
2021-10-26 05:45:00,,0815.6,5.01,0.00,30.2,29.2,00.0,39.3,31.8,11.4,0000.0,0012.75,0004.97,0003.97
2021-10-26 05:46:00,,0815.8,4.99,0.00,30.2,29.2,00.0,39.3,31.8,11.4,0000.0,0012.37,0004.97,0003.94
2021-10-26 05:47:00,,0816.0,5.00,0.00,30.2,29.2,00.0,39.3,31.9,11.6,0000.0,0012.31,0004.94,0003.92
2021-10-26 05:48:00,,0816.1,5.00,0.00,30.2,29.2,00.0,39.3,31.8,12.1,0000.0,0012.55,0004.89,0003.89
2021-10-26 05:49:00,,0816.0,5.00,0.00,30.2,29.2,00.0,39.3,31.8,12.2,0000.0,0013.19,0004.86,0003.83
2021-10-26 05:50:00,,0815.9,5.00,0.00,30.1,29.2,00.0,39.3,31.8,12.3,0000.0,0012.78,0004.82,0003.79
2021-10-26 05:51:00,,0815.9,5.00,0.00,30.1,29.2,00.0,39.3,31.8,12.3,0000.0,0012.51,0004.80,0003.72
2021-10-26 05:52:00,,0815.6,5.00,0.00,30.1,29.2,00.0,39.3,31.8,12.3,0000.0,0012.15,0004.77,0003.67
2021-10-26 05:53:00,,0815.8,5.01,0.00,30.1,29.1,00.0,39.3,31.7,12.2,0000.0,0013.05,0004.79,0003.65
2021-10-26 05:54:00,,0816.0,4.99,0.00,30.1,29.2,00.0,39.3,31.7,12.2,0000.0,0014.19,0004.87,0003.63
2021-10-26 05:55:00,,0815.9,5.00,0.00,30.1,29.1,00.0,39.3,31.7,12.2,0000.0,0014.45,0004.90,0003.59
2021-10-26 05:56:00,,0815.9,5.00,0.00,30.1,29.1,00.0,39.3,31.8,12.3,0000.0,0014.36,0004.85,0003.54
2021-10-26 05:57:00,,0815.4,5.00,0.00,30.1,29.1,00.0,39.3,31.7,12.3,0000.0,0015.05,0004.83,0003.48
2021-10-26 05:58:00,,0815.4,5.01,0.00,30.1,29.1,00.0,39.3,31.8,12.4,0000.0,0015.88,0004.79,0003.41
2021-10-26 05:59:00,,0815.4,5.01,0.00,30.1,29.1,00.0,39.3,31.7,12.3,0000.0,0016.88,0004.76,0003.39
